| time (UTC) | temp C | wind direction | speed KPH | gust KPH | rain 1hr cm | rain 24hr cm | rain mn cm | humidity % | barometer mb |
| 20260510065827 | 19 | 255 | 0.0 | 0.0 | 0.00 | 0.00 | 0.00 | 99 | |
| 20260510065325 | 19 | 259 | 0.0 | 0.0 | 0.00 | 0.00 | 0.00 | 99 | |
| 20260510064821 | 19 | 260 | 0.0 | 0.0 | 0.00 | 0.00 | 0.00 | 99 | |
| 20260510064319 | 19 | 255 | 0.0 | 0.0 | 0.00 | 0.00 | 0.00 | 99 | |
| 20260510063815 | 19 | 260 | 0.0 | 0.0 | 0.00 | 0.00 | 0.00 | 99 | |
| 20260510063311 | 19 | 260 | 0.0 | 0.0 | 0.00 | 0.00 | 0.00 | 99 | |
| 20260510062808 | 19 | 254 | 0.0 | 0.0 | 0.00 | 0.00 | 0.00 | 99 | |
| 20260510062307 | 19 | 263 | 0.0 | 0.0 | 0.00 | 0.00 | 0.00 | 99 | |
| 20260510061759 | 19 | 269 | 0.0 | 0.0 | 0.00 | 0.00 | 0.00 | 99 | |
| 20260510061257 | 19 | 255 | 0.0 | 0.0 | 0.00 | 0.00 | 0.00 | 99 | |
| 20260510060752 | 19 | 260 | 0.0 | 0.0 | 0.00 | 0.00 | 0.00 | 99 | |
| 20260510060250 | 19 | 247 | 0.0 | 0.0 | 0.00 | 0.00 | 0.00 | 99 | |
| 20260510055746 | 19 | 260 | 0.0 | 0.0 | 0.00 | 0.00 | 0.00 | 99 | |
| 20260510055245 | 19 | 258 | 0.0 | 0.0 | 0.00 | 0.00 | 0.00 | 99 | |
| 20260510054744 | 19 | 210 | 0.0 | 0.0 | 0.00 | 0.00 | 0.00 | 99 | |
| 20260510054241 | 19 | 264 | 0.0 | 0.0 | 0.00 | 0.00 | 0.00 | 99 | |
| 20260510053740 | 19 | 270 | 0.0 | 0.0 | 0.00 | 0.00 | 0.00 | 99 | |
| 20260510053236 | 19 | 269 | 0.0 | 0.0 | 0.00 | 0.00 | 0.00 | 99 | |
| 20260510052732 | 19 | 264 | 0.0 | 0.0 | 0.00 | 0.00 | 0.00 | 99 | |
| 20260510052228 | 19 | 246 | 0.0 | 0.0 | 0.00 | 0.00 | 0.00 | 99 | |
| 20260510051724 | 19 | 255 | 0.0 | 0.0 | 0.00 | 0.00 | 0.00 | 99 | |
| 20260510051221 | 19 | 263 | 0.0 | 0.0 | 0.00 | 0.00 | 0.00 | 99 | |
| 20260510050718 | 19 | 259 | 0.0 | 0.0 | 0.00 | 0.00 | 0.00 | 99 | |
| 20260510050215 | 19 | 286 | 0.0 | 0.0 | 0.00 | 0.00 | 0.00 | 99 | |
| 20260510045712 | 19 | 287 | 0.0 | 0.0 | 0.00 | 5.16 | 5.16 | 99 | |
| 20260510045209 | 19 | 263 | 0.0 | 0.0 | 0.00 | 5.16 | 5.16 | 99 | |
| 20260510044705 | 18 | 264 | 0.0 | 3.2 | 0.00 | 5.16 | 5.16 | 99 | |
| 20260510044203 | 18 | 255 | 0.0 | 0.0 | 0.00 | 5.16 | 5.16 | 99 | |
| 20260510043658 | 18 | 265 | 0.0 | 0.0 | 0.00 | 5.16 | 5.16 | 99 | |
| 20260510043155 | 18 | 261 | 0.0 | 0.0 | 0.00 | 5.16 | 5.16 | 99 | |
| 20260510042652 | 18 | 291 | 0.0 | 0.0 | 0.00 | 5.16 | 5.16 | 99 | |
| 20260510042148 | 18 | 261 | 0.0 | 0.0 | 0.00 | 5.16 | 5.16 | 99 | |
| 20260510041646 | 18 | 271 | 0.0 | 0.0 | 0.00 | 5.16 | 5.16 | 99 | |
| 20260510041143 | 18 | 267 | 0.0 | 0.0 | 0.00 | 5.16 | 5.16 | 99 | |
| 20260510040640 | 18 | 274 | 0.0 | 0.0 | 0.00 | 5.16 | 5.16 | 99 | |
| 20260510040136 | 18 | 305 | 1.6 | 1.6 | 0.00 | 5.16 | 5.16 | 99 | |
| 20260510035631 | 18 | 265 | 0.0 | 0.0 | 0.00 | 5.16 | 5.16 | 99 | |
| 20260510035127 | 18 | 261 | 0.0 | 0.0 | 0.00 | 5.16 | 5.16 | 99 | |
| 20260510034624 | 18 | 271 | 0.0 | 0.0 | 0.00 | 5.16 | 5.16 | 99 | |
| 20260510034121 | 18 | 256 | 0.0 | 0.0 | 0.00 | 5.16 | 5.16 | 99 | |
| 20260510033618 | 18 | 291 | 0.0 | 3.2 | 0.00 | 5.16 | 5.16 | 99 | |
| 20260510033115 | 18 | 254 | 0.0 | 0.0 | 0.00 | 5.16 | 5.16 | 99 | |
| 20260510032612 | 18 | 240 | 0.0 | 0.0 | 0.00 | 5.16 | 5.16 | 99 | |
| 20260510032107 | 18 | 256 | 0.0 | 0.0 | 0.00 | 5.16 | 5.16 | 99 | |
| 20260510031602 | 18 | 257 | 0.0 | 0.0 | 0.00 | 5.16 | 5.16 | 99 | |
| 20260510031059 | 18 | 256 | 0.0 | 0.0 | 0.00 | 5.16 | 5.16 | 99 | |
| 20260510030554 | 18 | 266 | 0.0 | 0.0 | 0.00 | 5.16 | 5.16 | 99 | |
| 20260510030052 | 18 | 266 | 0.0 | 1.6 | 0.00 | 5.16 | 5.16 | 99 | |
| 20260510025548 | 18 | 227 | 0.0 | 1.6 | 0.00 | 5.16 | 5.16 | 99 | |
| 20260510025046 | 18 | 251 | 0.0 | 1.6 | 0.00 | 5.16 | 5.16 | 99 | |
| 20260510024542 | 18 | 213 | 0.0 | 0.0 | 0.00 | 5.16 | 5.16 | 99 | |
| 20260510024039 | 18 | 236 | 0.0 | 0.0 | 0.00 | 5.16 | 5.16 | 99 | |
| 20260510023535 | 18 | 252 | 0.0 | 0.0 | 0.00 | 5.16 | 5.16 | 99 | |
| 20260510023033 | 18 | 216 | 0.0 | 1.6 | 0.00 | 5.16 | 5.16 | 99 | |
| 20260510022532 | 18 | 256 | 0.0 | 0.0 | 0.00 | 5.16 | 5.16 | 99 | |
| 20260510022032 | 18 | 249 | 0.0 | 1.6 | 0.00 | 5.16 | 5.16 | 99 | |
| 20260510021529 | 18 | 253 | 0.0 | 0.0 | 0.00 | 5.16 | 5.16 | 99 | |
| 20260510021026 | 18 | 288 | 3.2 | 3.2 | 0.00 | 5.16 | 5.16 | 99 | |
| 20260510020521 | 18 | 203 | 1.6 | 1.6 | 0.00 | 5.16 | 5.16 | 99 | |
| 20260510020016 | 18 | 300 | 0.0 | 1.6 | 0.00 | 5.16 | 5.16 | 99 | |
| 20260510015512 | 18 | 255 | 0.0 | 1.6 | 0.00 | 5.16 | 5.16 | 99 | |
| 20260510015008 | 18 | 234 | 0.0 | 1.6 | 0.00 | 5.16 | 5.16 | 99 | |
| 20260510014505 | 18 | 320 | 1.6 | 3.2 | 0.00 | 5.16 | 5.16 | 99 | |
| 20260510014002 | 18 | 251 | 0.0 | 4.8 | 0.00 | 5.16 | 5.16 | 99 | |
| 20260510013456 | 18 | 187 | 3.2 | 4.8 | 0.00 | 5.16 | 5.16 | 99 | |
| 20260510012953 | 18 | 169 | 4.8 | 8.0 | 0.18 | 5.16 | 5.16 | 99 | |
| 20260510012447 | 18 | 222 | 1.6 | 4.8 | 0.18 | 5.16 | 5.16 | 99 | |
| 20260510011942 | 18 | 229 | 3.2 | 3.2 | 0.18 | 5.13 | 5.13 | 99 | |
| 20260510011437 | 18 | 242 | 0.0 | 0.0 | 0.18 | 5.13 | 5.13 | 99 | |
| 20260510010934 | 18 | 246 | 0.0 | 1.6 | 0.13 | 5.11 | 5.11 | 99 | |
| 20260510010432 | 18 | 229 | 0.0 | 0.0 | 0.18 | 5.08 | 5.08 | 99 | |
| 20260510005928 | 18 | 218 | 0.0 | 0.0 | 0.18 | 5.08 | 5.08 | 99 | |
| 20260510005424 | 18 | 192 | 0.0 | 0.0 | 0.13 | 5.05 | 5.05 | 99 | |
| 20260510004921 | 18 | 243 | 0.0 | 0.0 | 0.13 | 5.05 | 5.05 | 99 | |
| 20260510004419 | 18 | 252 | 0.0 | 0.0 | 0.18 | 5.03 | 5.03 | 99 | |
| 20260510003917 | 18 | 252 | 0.0 | 0.0 | 0.18 | 5.03 | 5.03 | 99 | |
| 20260510003414 | 18 | 259 | 0.0 | 0.0 | 0.13 | 5.00 | 5.00 | 99 | |
| 20260510002913 | 18 | 253 | 0.0 | 0.0 | 0.00 | 4.98 | 4.98 | 99 | |
| 20260510002410 | 18 | 246 | 0.0 | 0.0 | 0.00 | 4.98 | 4.98 | 99 | |
| 20260510001906 | 18 | 258 | 0.0 | 0.0 | 0.00 | 4.98 | 4.98 | 99 | |
| 20260510001404 | 18 | 271 | 0.0 | 0.0 | 0.00 | 4.98 | 4.98 | 99 | |
| 20260510000901 | 18 | 250 | 0.0 | 0.0 | 0.00 | 4.98 | 4.98 | 99 | |
| 20260510000357 | 18 | 250 | 0.0 | 0.0 | 0.00 | 4.98 | 4.98 | 99 | |
| 20260509235854 | 18 | 239 | 0.0 | 0.0 | 0.00 | 4.98 | 4.98 | 99 | |
| 20260509235350 | 18 | 252 | 0.0 | 0.0 | 0.00 | 4.98 | 4.98 | 99 | |
| 20260509234847 | 18 | 251 | 0.0 | 0.0 | 0.00 | 4.98 | 4.98 | 99 | |
| 20260509234344 | 18 | 207 | 1.6 | 3.2 | 0.00 | 4.98 | 4.98 | 99 | |
| 20260509233842 | 18 | 264 | 0.0 | 0.0 | 0.18 | 4.98 | 4.98 | 99 | |
| 20260509233339 | 18 | 274 | 0.0 | 0.0 | 0.00 | 4.95 | 4.95 | 99 | |
| 20260509232835 | 18 | 256 | 0.0 | 0.0 | 0.00 | 4.95 | 4.95 | 99 | |
| 20260509232333 | 18 | 254 | 0.0 | 0.0 | 0.00 | 4.95 | 4.95 | 99 | |
| 20260509231828 | 18 | 275 | 1.6 | 3.2 | 0.00 | 4.95 | 4.95 | 99 | |
| 20260509231326 | 18 | 282 | 3.2 | 8.0 | 0.13 | 4.95 | 4.95 | 99 | |
| 20260509230823 | 18 | 252 | 1.6 | 9.7 | 0.13 | 4.95 | 4.95 | 99 | |
| 20260509230320 | 18 | 248 | 1.6 | 4.8 | 0.00 | 4.93 | 4.93 | 99 | |
| 20260509225815 | 18 | 147 | 1.6 | 8.0 | 0.18 | 4.93 | 4.93 | 99 | |
| 20260509225312 | 18 | 209 | 3.2 | 3.2 | 0.18 | 4.93 | 4.93 | 99 | |
| 20260509224808 | 18 | 227 | 0.0 | 1.6 | 0.00 | 4.90 | 4.90 | 99 | |
| 20260509224305 | 18 | 215 | 3.2 | 8.0 | 0.13 | 4.90 | 4.90 | 99 | |
| 20260509223801 | 18 | 238 | 0.0 | 3.2 | 0.00 | 4.88 | 4.88 | 99 | |
| 20260509223259 | 18 | 194 | 4.8 | 12.9 | 0.18 | 4.88 | 4.88 | 99 | |
| 20260509222755 | 18 | 207 | 4.8 | 8.0 | 0.30 | 4.88 | 4.88 | 99 | |
| 20260509222250 | 18 | 251 | 0.0 | 3.2 | 0.30 | 4.85 | 4.85 | 99 | |
| 20260509221746 | 18 | 200 | 1.6 | 4.8 | 0.66 | 4.83 | 4.83 | 99 | |
| 20260509221243 | 18 | 221 | 3.2 | 4.8 | 0.43 | 4.78 | 4.78 | 99 | |
| 20260509220739 | 18 | 224 | 1.6 | 3.2 | 0.61 | 4.72 | 4.72 | 99 | |
| 20260509220236 | 18 | 194 | 3.2 | 3.2 | 0.61 | 4.67 | 4.67 | 99 | |
| 20260509215731 | 18 | 258 | 0.0 | 0.0 | 0.79 | 4.62 | 4.62 | 99 | |
| 20260509215228 | 18 | 246 | 0.0 | 0.0 | 0.79 | 4.57 | 4.57 | 99 | |
| 20260509214725 | 18 | 255 | 0.0 | 0.0 | 0.71 | 4.50 | 4.50 | 99 | |
| 20260509214222 | 18 | 246 | 0.0 | 0.0 | 0.71 | 4.45 | 4.45 | 99 | |
| 20260509213719 | 18 | 246 | 1.6 | 3.2 | 0.61 | 4.37 | 4.37 | 99 | |
| 20260509213214 | 18 | 233 | 0.0 | 0.0 | 0.61 | 4.32 | 4.32 | 99 | |
| 20260509212712 | 18 | 237 | 0.0 | 0.0 | 0.61 | 4.24 | 4.24 | 99 | |
| 20260509212209 | 18 | 236 | 0.0 | 0.0 | 0.61 | 4.19 | 4.19 | 99 | |
| 20260509211705 | 18 | 265 | 0.0 | 0.0 | 0.61 | 4.14 | 4.14 | 99 | |
| 20260509211202 | 18 | 264 | 0.0 | 1.6 | 0.61 | 4.09 | 4.09 | 99 | |
| 20260509210658 | 18 | 243 | 0.0 | 0.0 | 0.30 | 4.01 | 4.01 | 99 | |
| 20260509210156 | 18 | 258 | 0.0 | 0.0 | 0.30 | 3.99 | 3.99 | 99 | |
| 20260509205651 | 18 | 237 | 0.0 | 0.0 | 0.43 | 3.96 | 3.96 | 99 | |
| 20260509205150 | 18 | 216 | 1.6 | 1.6 | 0.48 | 3.94 | 3.94 | 99 | |
| 20260509204646 | 18 | 256 | 0.0 | 0.0 | 0.66 | 3.89 | 3.89 | 99 | |
| 20260509204143 | 18 | 281 | 1.6 | 3.2 | 0.43 | 3.84 | 3.84 | 99 | |
| 20260509203639 | 18 | 214 | 6.4 | 8.0 | 0.43 | 3.78 | 3.78 | 99 | |
| 20260509203137 | 18 | 241 | 0.0 | 1.6 | 0.30 | 3.76 | 3.76 | 99 | |
| 20260509202637 | 18 | 201 | 3.2 | 3.2 | 0.18 | 3.71 | 3.71 | 99 | |
| 20260509202133 | 18 | 275 | 1.6 | 1.6 | 0.18 | 3.71 | 3.71 | 99 | |
| 20260509201628 | 18 | 266 | 0.0 | 1.6 | 1.19 | 3.68 | 3.68 | 99 | |
| 20260509201126 | 18 | 246 | 1.6 | 3.2 | 2.59 | 3.68 | 3.68 | 99 | |
| 20260509200621 | 18 | 69 | 0.0 | 3.2 | 1.19 | 3.40 | 3.40 | 99 | |
| 20260509200117 | 18 | 179 | 0.0 | 4.8 | 0.48 | 3.25 | 3.25 | 99 | |
| 20260509195613 | 18 | 190 | 3.2 | 8.0 | 0.18 | 3.20 | 3.20 | 99 | |
| 20260509195108 | 18 | 220 | 4.8 | 4.8 | 0.13 | 3.17 | 3.17 | 99 | |
| 20260509194607 | 19 | 151 | 4.8 | 4.8 | 0.30 | 3.17 | 3.17 | 99 | |
| 20260509194105 | 19 | 241 | 0.0 | 3.2 | 0.18 | 3.15 | 3.15 | 99 | |
| 20260509193601 | 19 | 247 | 0.0 | 9.7 | 0.13 | 3.12 | 3.12 | 99 | |
| 20260509193057 | 19 | 246 | 4.8 | 4.8 | 0.13 | 3.12 | 3.12 | 99 | |
| 20260509192554 | 19 | 214 | 4.8 | 8.0 | 0.00 | 3.10 | 3.10 | 99 | |
| 20260509192048 | 19 | 246 | 1.6 | 3.2 | 0.18 | 3.10 | 3.10 | 99 | |
| 20260509191543 | 19 | 207 | 3.2 | 8.0 | 0.18 | 3.10 | 3.10 | 99 | |
| 20260509191039 | 19 | 221 | 6.4 | 9.7 | 0.13 | 3.07 | 3.07 | 99 | |
| 20260509190536 | 19 | 208 | 3.2 | 8.0 | 0.30 | 3.07 | 3.07 | 99 | |
| 20260509190034 | 19 | 213 | 0.0 | 9.7 | 0.18 | 3.05 | 3.05 | 99 | |
| 20260509185531 | 19 | 218 | 1.6 | 4.8 | 0.30 | 3.02 | 3.02 | 99 | |
| 20260509185027 | 19 | 229 | 1.6 | 4.8 | 0.43 | 3.02 | 3.02 | 99 | |
| 20260509184526 | 19 | 195 | 1.6 | 4.8 | 0.30 | 2.97 | 2.97 | 99 | |
| 20260509184022 | 19 | 234 | 1.6 | 3.2 | 0.18 | 2.95 | 2.95 | 99 | |
| 20260509183517 | 19 | 221 | 0.0 | 1.6 | 0.00 | 2.92 | 2.92 | 99 | |
| 20260509183013 | 19 | 247 | 0.0 | 0.0 | 0.00 | 2.92 | 2.92 | 99 | |
| 20260509182510 | 19 | 235 | 0.0 | 0.0 | 0.00 | 2.92 | 2.92 | 99 | |
| 20260509182007 | 19 | 254 | 0.0 | 0.0 | 0.00 | 2.92 | 2.92 | 99 | |
| 20260509181505 | 19 | 192 | 0.0 | 0.0 | 0.00 | 2.92 | 2.92 | 99 | |
| 20260509181002 | 19 | 241 | 0.0 | 0.0 | 0.00 | 2.92 | 2.92 | 99 | |
| 20260509180457 | 19 | 260 | 0.0 | 0.0 | 0.00 | 2.92 | 2.92 | 99 | |
| 20260509175955 | 19 | 227 | 0.0 | 0.0 | 0.00 | 2.92 | 2.92 | 99 | |
| 20260509175450 | 19 | 259 | 1.6 | 3.2 | 0.00 | 2.92 | 2.92 | 99 | |
| 20260509174947 | 19 | 146 | 0.0 | 1.6 | 0.00 | 2.92 | 2.92 | 99 | |
| 20260509174443 | 19 | 262 | 1.6 | 1.6 | 0.00 | 2.92 | 2.92 | 99 | |
| 20260509173939 | 19 | 248 | 0.0 | 0.0 | 0.00 | 2.92 | 2.92 | 99 | |
| 20260509173433 | 19 | 303 | 0.0 | 1.6 | 0.00 | 2.92 | 2.92 | 99 | |
| 20260509172930 | 19 | 255 | 0.0 | 0.0 | 0.00 | 2.92 | 2.92 | 99 | |
| 20260509172427 | 19 | 253 | 0.0 | 0.0 | 0.00 | 2.92 | 2.92 | 99 | |
| 20260509171922 | 19 | 253 | 0.0 | 3.2 | 0.00 | 2.92 | 2.92 | 99 | |
| 20260509171419 | 18 | 260 | 0.0 | 0.0 | 0.00 | 2.92 | 2.92 | 99 | |
| 20260509170915 | 18 | 278 | 0.0 | 0.0 | 0.00 | 2.92 | 2.92 | 99 | |
| 20260509170411 | 19 | 239 | 0.0 | 0.0 | 0.00 | 2.92 | 2.92 | 99 | |
| 20260509165907 | 19 | 216 | 0.0 | 0.0 | 0.00 | 2.92 | 2.92 | 99 | |
| 20260509165401 | 18 | 226 | 1.6 | 1.6 | 0.00 | 2.92 | 2.92 | 99 | |
| 20260509164857 | 18 | 239 | 0.0 | 3.2 | 0.00 | 2.92 | 2.92 | 99 | |
| 20260509164353 | 18 | 255 | 0.0 | 0.0 | 0.00 | 2.92 | 2.92 | 99 | |
| 20260509163849 | 18 | 245 | 0.0 | 0.0 | 0.00 | 2.92 | 2.92 | 99 | |
| 20260509163346 | 18 | 281 | 0.0 | 3.2 | 0.00 | 2.92 | 2.92 | 99 | |
| 20260509162845 | 18 | 219 | 0.0 | 0.0 | 0.00 | 2.92 | 2.92 | 99 | |
| 20260509162338 | 18 | 248 | 0.0 | 3.2 | 0.00 | 2.92 | 2.92 | 99 | |
| 20260509161835 | 18 | 223 | 1.6 | 3.2 | 0.00 | 2.92 | 2.92 | 99 | |
| 20260509161331 | 18 | 247 | 0.0 | 1.6 | 0.00 | 2.92 | 2.92 | 99 | |
| 20260509160826 | 18 | 255 | 0.0 | 0.0 | 0.00 | 2.92 | 2.92 | 99 | |
| 20260509160323 | 18 | 251 | 0.0 | 0.0 | 0.00 | 2.92 | 2.92 | 99 | |
| 20260509155818 | 18 | 251 | 0.0 | 0.0 | 0.00 | 2.92 | 2.92 | 99 | |
| 20260509155315 | 18 | 222 | 0.0 | 1.6 | 0.00 | 2.92 | 2.92 | 99 | |
| 20260509154811 | 18 | 240 | 0.0 | 1.6 | 0.00 | 2.92 | 2.92 | 99 | |
| 20260509154308 | 18 | 269 | 0.0 | 0.0 | 0.00 | 2.92 | 2.92 | 99 | |
| 20260509153805 | 18 | 336 | 1.6 | 3.2 | 0.00 | 2.92 | 2.92 | 99 | |
| 20260509153301 | 18 | 254 | 0.0 | 3.2 | 0.00 | 2.92 | 2.92 | 99 | |
| 20260509152758 | 18 | 257 | 0.0 | 0.0 | 0.00 | 2.92 | 2.92 | 99 | |
| 20260509152254 | 18 | 220 | 1.6 | 3.2 | 0.00 | 2.92 | 2.92 | 99 | |
| 20260509151751 | 18 | 230 | 1.6 | 3.2 | 0.00 | 2.92 | 2.92 | 99 | |
| 20260509151247 | 18 | 138 | 1.6 | 4.8 | 0.00 | 2.92 | 2.92 | 99 | |
| 20260509150746 | 18 | 256 | 0.0 | 0.0 | 0.00 | 2.92 | 2.92 | 99 | |
| 20260509150244 | 18 | 250 | 0.0 | 0.0 | 0.00 | 2.92 | 2.92 | 99 | |
| 20260509145740 | 18 | 245 | 0.0 | 0.0 | 0.00 | 2.92 | 2.92 | 99 | |
| 20260509145240 | 18 | 260 | 0.0 | 0.0 | 0.00 | 2.92 | 2.92 | 99 | |
| 20260509144737 | 18 | 208 | 0.0 | 0.0 | 0.00 | 2.92 | 2.92 | 99 | |
| 20260509144234 | 18 | 222 | 0.0 | 0.0 | 0.00 | 2.92 | 2.92 | 99 | |
| 20260509143731 | 18 | 257 | 0.0 | 0.0 | 0.00 | 2.92 | 2.92 | 99 | |
| 20260509143229 | 18 | 265 | 0.0 | 0.0 | 0.00 | 2.92 | 2.92 | 99 | |
| 20260509142724 | 18 | 266 | 0.0 | 0.0 | 0.00 | 2.92 | 2.92 | 99 | |
| 20260509142221 | 18 | 45 | 0.0 | 1.6 | 0.18 | 2.92 | 2.92 | 99 | |
| 20260509141716 | 18 | 288 | 0.0 | 0.0 | 0.18 | 2.92 | 2.92 | 99 | |
| 20260509141214 | 18 | 231 | 1.6 | 1.6 | 0.00 | 2.90 | 2.90 | 99 | |
| 20260509140710 | 18 | 222 | 1.6 | 1.6 | 0.00 | 2.90 | 2.90 | 99 | |
| 20260509140208 | 18 | 263 | 0.0 | 0.0 | 0.00 | 2.90 | 2.90 | 99 | |
| 20260509135705 | 18 | 284 | 0.0 | 0.0 | 0.00 | 2.90 | 2.90 | 99 | |
| 20260509135203 | 18 | 256 | 0.0 | 0.0 | 0.00 | 2.90 | 2.90 | 99 | |
| 20260509134659 | 18 | 261 | 0.0 | 0.0 | 0.00 | 2.90 | 2.90 | 99 | |
| 20260509134157 | 18 | 39 | 1.6 | 3.2 | 0.00 | 2.90 | 2.90 | 99 | |
| 20260509133654 | 18 | 281 | 0.0 | 0.0 | 0.00 | 2.90 | 2.90 | 99 | |
| 20260509133151 | 18 | 253 | 0.0 | 1.6 | 0.13 | 2.90 | 2.90 | 99 | |
| 20260509132649 | 18 | 199 | 4.8 | 4.8 | 0.30 | 2.90 | 2.90 | 99 | |
| 20260509132147 | 18 | 257 | 0.0 | 1.6 | 0.18 | 2.87 | 2.87 | 99 | |
| 20260509131643 | 18 | 175 | 0.0 | 3.2 | 0.13 | 2.84 | 2.84 | 99 | |
| 20260509131140 | 18 | 246 | 0.0 | 0.0 | 0.30 | 2.84 | 2.84 | 99 | |
| 20260509130636 | 18 | 254 | 0.0 | 0.0 | 0.30 | 2.82 | 2.82 | 99 | |
| 20260509130132 | 18 | 280 | 0.0 | 1.6 | 0.30 | 2.79 | 2.79 | 99 | |
| 20260509125629 | 18 | 240 | 1.6 | 4.8 | 0.13 | 2.74 | 2.74 | 99 | |
| 20260509125126 | 18 | 225 | 1.6 | 3.2 | 0.43 | 2.74 | 2.74 | 99 | |
| 20260509124622 | 18 | 213 | 1.6 | 1.6 | 0.79 | 2.72 | 2.72 | 99 | |
| 20260509124120 | 18 | 247 | 0.0 | 0.0 | 1.27 | 2.67 | 2.67 | 99 | |
| 20260509123618 | 18 | 253 | 0.0 | 0.0 | 1.50 | 2.57 | 2.57 | 99 | |
| 20260509123114 | 18 | 206 | 1.6 | 1.6 | 1.27 | 2.44 | 2.44 | 99 | |
| 20260509122610 | 18 | 249 | 0.0 | 0.0 | 0.66 | 2.29 | 2.29 | 99 | |
| 20260509122107 | 18 | 263 | 0.0 | 0.0 | 0.71 | 2.24 | 2.24 | 99 | |
| 20260509121604 | 18 | 247 | 0.0 | 0.0 | 0.89 | 2.18 | 2.18 | 99 | |
| 20260509121101 | 18 | 311 | 0.0 | 3.2 | 0.97 | 2.11 | 2.11 | 99 | |
| 20260509120559 | 18 | 304 | 0.0 | 3.2 | 1.50 | 2.03 | 2.03 | 99 | |
| 20260509120057 | 18 | 119 | 1.6 | 3.2 | 1.98 | 1.93 | 1.93 | 99 | |
| 20260509115554 | 18 | 251 | 0.0 | 0.0 | 3.17 | 1.75 | 1.75 | 99 | |
| 20260509115052 | 18 | 251 | 0.0 | 3.2 | 3.96 | 1.60 | 1.60 | 99 | |
| 20260509114550 | 18 | 252 | 1.6 | 4.8 | 2.29 | 1.17 | 1.17 | 99 | |
| 20260509114048 | 18 | 190 | 1.6 | 3.2 | 1.02 | 0.91 | 0.91 | 99 | |
| 20260509113547 | 19 | 225 | 0.0 | 3.2 | 0.13 | 0.76 | 0.76 | 99 | |
| 20260509113044 | 20 | 305 | 8.0 | 11.3 | 0.00 | 0.74 | 0.74 | 99 | |
| 20260509112540 | 21 | 265 | 3.2 | 3.2 | 0.18 | 0.74 | 0.74 | 99 | |
| 20260509112037 | 20 | 250 | 0.0 | 0.0 | 0.00 | 0.71 | 0.71 | 99 | |
| 20260509111534 | 20 | 253 | 0.0 | 0.0 | 0.00 | 0.71 | 0.71 | 99 | |
| 20260509111031 | 20 | 250 | 0.0 | 0.0 | 0.00 | 0.71 | 0.71 | 99 | |
| 20260509110528 | 20 | 254 | 0.0 | 0.0 | 0.00 | 0.71 | 0.71 | 99 | |
| 20260509110025 | 20 | 249 | 0.0 | 0.0 | 0.00 | 0.71 | 0.71 | 99 | |
| 20260509105523 | 20 | 251 | 0.0 | 1.6 | 0.00 | 0.71 | 0.71 | 99 | |
| 20260509105021 | 20 | 245 | 0.0 | 8.0 | 0.00 | 0.71 | 0.71 | 99 | |
| 20260509104517 | 20 | 217 | 0.0 | 0.0 | 0.00 | 0.71 | 0.71 | 99 | |
| 20260509104014 | 20 | 218 | 0.0 | 8.0 | 0.00 | 0.71 | 0.71 | 99 | |
| 20260509103512 | 20 | 249 | 0.0 | 1.6 | 0.00 | 0.71 | 0.71 | 99 | |
| 20260509103010 | 20 | 239 | 1.6 | 3.2 | 0.00 | 0.71 | 0.71 | 99 | |
| 20260509102507 | 20 | 210 | 0.0 | 3.2 | 0.00 | 0.71 | 0.71 | 99 | |
| 20260509102004 | 20 | 232 | 0.0 | 0.0 | 0.00 | 0.71 | 0.71 | 99 | |
| 20260509101500 | 20 | 247 | 0.0 | 0.0 | 0.00 | 0.71 | 0.71 | 99 | |
| 20260509100957 | 20 | 234 | 0.0 | 0.0 | 0.00 | 0.71 | 0.71 | 99 | |
| 20260509100454 | 20 | 233 | 0.0 | 0.0 | 0.00 | 0.71 | 0.71 | 99 | |
| 20260509095951 | 20 | 237 | 0.0 | 0.0 | 0.00 | 0.71 | 0.71 | 99 | |
| 20260509095447 | 20 | 237 | 0.0 | 0.0 | 0.00 | 0.71 | 0.71 | 99 | |
| 20260509094945 | 20 | 239 | 0.0 | 1.6 | 0.00 | 0.71 | 0.71 | 99 | |
| 20260509094441 | 20 | 244 | 0.0 | 1.6 | 0.00 | 0.71 | 0.71 | 99 | |
| 20260509093939 | 20 | 249 | 0.0 | 3.2 | 0.00 | 0.71 | 0.71 | 99 | |
| 20260509093436 | 20 | 257 | 0.0 | 1.6 | 0.00 | 0.71 | 0.71 | 99 | |
| 20260509092934 | 20 | 237 | 0.0 | 0.0 | 0.00 | 0.71 | 0.71 | 99 | |
| 20260509092432 | 20 | 250 | 1.6 | 3.2 | 0.00 | 0.71 | 0.71 | 99 | |
| 20260509091931 | 20 | 226 | 0.0 | 0.0 | 0.00 | 0.71 | 0.71 | 99 | |
| 20260509091427 | 20 | 185 | 1.6 | 3.2 | 0.00 | 0.71 | 0.71 | 99 | |
| 20260509090924 | 20 | 241 | 0.0 | 0.0 | 0.00 | 0.71 | 0.71 | 99 | |
| 20260509090421 | 20 | 254 | 0.0 | 1.6 | 0.00 | 0.71 | 0.71 | 99 | |
| 20260509085919 | 20 | 200 | 1.6 | 3.2 | 0.00 | 0.71 | 0.71 | 99 | |
| 20260509085416 | 20 | 239 | 0.0 | 0.0 | 0.00 | 0.71 | 0.71 | 99 | |
| 20260509084912 | 20 | 245 | 0.0 | 0.0 | 0.00 | 0.71 | 0.71 | 99 | |
| 20260509084409 | 20 | 226 | 1.6 | 1.6 | 0.00 | 0.71 | 0.71 | 99 | |
| 20260509083906 | 20 | 244 | 0.0 | 1.6 | 0.00 | 0.71 | 0.71 | 99 | |
| 20260509083403 | 20 | 226 | 0.0 | 0.0 | 0.00 | 0.71 | 0.71 | 99 | |
| 20260509082900 | 20 | 257 | 0.0 | 0.0 | 0.00 | 0.71 | 0.71 | 99 | |
| 20260509082357 | 20 | 232 | 0.0 | 3.2 | 0.00 | 0.71 | 0.71 | 99 | |
| 20260509081854 | 20 | 229 | 0.0 | 0.0 | 0.00 | 0.71 | 0.71 | 99 | |
| 20260509081351 | 20 | 230 | 0.0 | 0.0 | 0.00 | 0.71 | 0.71 | 99 | |
| 20260509080849 | 20 | 275 | 0.0 | 0.0 | 0.00 | 0.71 | 0.71 | 99 | |
| 20260509080347 | 20 | 257 | 0.0 | 1.6 | 0.00 | 0.71 | 0.71 | 99 | |
| 20260509075845 | 20 | 209 | 1.6 | 8.0 | 0.18 | 0.71 | 0.71 | 99 | |
| 20260509075341 | 20 | 259 | 1.6 | 4.8 | 0.18 | 0.71 | 0.71 | 99 | |
| 20260509074838 | 20 | 168 | 3.2 | 4.8 | 0.13 | 0.69 | 0.69 | 99 | |
| 20260509074336 | 20 | 218 | 1.6 | 8.0 | 0.30 | 0.69 | 0.69 | 99 | |
| 20260509073832 | 20 | 183 | 0.0 | 9.7 | 0.79 | 0.66 | 0.66 | 99 | |
| 20260509073329 | 20 | 183 | 3.2 | 9.7 | 0.89 | 0.64 | 0.64 | 99 | |
| 20260509072826 | 20 | 243 | 1.6 | 3.2 | 0.30 | 0.51 | 0.51 | 99 | |
| 20260509072322 | 20 | 211 | 4.8 | 4.8 | 0.30 | 0.48 | 0.48 | 99 | |
| 20260509071819 | 20 | 244 | 1.6 | 4.8 | 0.79 | 0.46 | 0.46 | 99 | |
| 20260509071316 | 20 | 198 | 3.2 | 9.7 | 0.79 | 0.43 | 0.43 | 99 | |
| 20260509070813 | 20 | 252 | 3.2 | 11.3 | 0.18 | 0.33 | 0.33 | 99 | |
| 20260509070310 | 20 | 195 | 1.6 | 4.8 | 0.30 | 0.30 | 0.30 | 99 |